Wetbulb
59.94 61.27 60.15 57.75 55.78 57.98 53.61 54.32 52.01 54.16 55.70 59.64 60.80 61.84 62.62 62.82 65.24 65.34 64.08 65.38 67.39 70.22 72.80 73.15 73.09 73.94 74.98 75.70 76.75 77.71 77.78 78.63
59.28 60.70 60.80 58.82 60.23 53.22 53.68 49.40 48.92 51.94 53.23 55.63 58.48 60.23 61.68 62.60 63.86 63.00 64.29 65.82 69.46 70.37 72.13 74.13 74.17 73.94 75.30 76.10 77.31 78.10 77.24 78.00
58.42 57.32 56.71 56.44 55.71 56.46 55.50 53.56 50.03 49.76 52.62 59.94 61.01 61.45 61.65 63.19 65.14 63.69 65.08 65.96 66.79 69.19 71.93 74.42 75.48 75.16 74.84 75.85 76.26 77.10 77.25 77.24
54.53 59.19 59.56 58.61 56.84 56.26 52.52 52.10 53.83 53.35 54.37 61.25 62.61 62.43 63.31 63.61 65.27 66.06 66.45 66.88 68.33 70.23 71.75 72.73 74.67 75.71 75.97 76.42 76.23 77.14 77.53 77.23
52.28 56.45 58.25 56.21 57.57 57.88 56.61 55.80 53.31 51.06 52.72 61.45 62.42 63.21 64.10 64.29 65.63 67.70 67.79 68.20 70.02 71.10 73.90 74.72 75.73 76.49 76.16 76.45 76.35 76.53 77.02 76.66
49.67 53.23 56.77 54.51 55.36 56.70 55.68 52.48 53.05 53.45 55.38 59.52 61.47 61.86 63.66 65.14 66.91 68.04 67.84 68.70 69.41 71.00 73.45 75.48 76.13 76.84 76.99 76.57 77.11 76.26 76.36 76.12
54.22 54.80 55.62 55.71 55.11 54.61 53.70 54.62 52.19 54.30 55.50 58.07 61.24 63.15 64.52 66.01 67.51 67.88 66.70 66.84 69.43 71.49 74.80 75.80 76.22 76.88 77.57 77.11 77.66 77.79 77.43 77.60
53.26 54.47 54.78 53.80 55.24 55.78 54.89 54.97 54.85 55.08 55.17 60.33 61.45 62.43 65.40 66.59 67.86 67.80 67.04 66.89 69.40 72.47 75.25 75.79 76.74 77.28 77.72 77.90 78.13 78.53 77.81 75.78
50.39 53.91 53.68 51.63 54.58 55.11 55.50 56.62 55.61 53.45 56.97 60.16 59.92 60.98 64.02 66.80 68.75 68.88 68.06 67.34 68.80 71.61 73.74 75.19 76.54 77.26 77.08 77.50 77.42 76.92 76.33 76.41
50.14 52.79 47.40 54.11 57.70 57.25 56.03 56.44 57.34 57.52 58.62 59.91 60.20 61.34 62.57 64.90 67.89 69.75 69.94 68.61 69.12 70.40 71.90 74.17 75.33 75.93 76.53 77.24 78.00 77.01 78.08 79.80
50.40 49.44 52.32 53.91 56.12 55.62 55.09 55.05 58.06 57.79 58.97 59.66 60.65 60.99 61.52 63.38 65.19 69.34 71.66 70.55 69.23 70.66 72.34 73.95 74.49 76.14 77.43 78.03 78.25 79.06 78.83 79.06
52.93 49.10 47.40 54.07 57.80 59.38 58.58 53.08 59.15 59.22 59.25 59.41 60.25 56.91 59.38 63.58 64.57 65.28 71.54 72.23 69.99 70.68 73.69 73.96 75.68 77.14 77.31 77.03 77.75 77.60 77.71 77.36
52.80 51.45 53.26 57.77 59.08 60.12 52.15 53.79 59.79 60.10 60.32 60.18 59.56 60.78 62.72 63.98 66.76 68.66 70.74 72.79 72.14 72.45 74.10 75.24 76.88 77.05 76.65 77.08 76.57 77.56 77.73 76.36
53.72 51.86 50.17 59.75 59.27 55.77 62.30 64.52 65.58 65.52 63.92 62.59 62.82 63.41 67.74 68.84 69.32 69.79 71.26 72.82 71.95 74.39 74.68 76.29 76.83 77.09 76.57 76.64 78.10 77.23 75.21 73.58
55.80 54.82 64.68 64.38 64.46 66.38 65.39 63.87 65.03 65.92 66.13 66.33 65.47 67.14 69.40 70.26 71.11 72.72 73.85 74.22 75.33 75.00 75.49 76.54 77.31 77.23 76.44 77.55 76.18 74.22 73.11 72.34
58.71 61.61 62.85 63.63 64.59 65.33 65.84 65.50 66.81 66.87 67.13 67.29 67.62 69.78 70.27 71.25 73.19 75.42 75.91 75.72 75.67 75.85 76.18 76.09 77.01 77.19 76.63 74.71 74.12 73.22 72.73 72.21
61.73 63.07 64.59 65.70 66.80 67.17 66.85 67.44 67.63 68.43 68.49 69.35 70.61 71.24 72.30 73.25 74.22 74.84 75.42 75.76 76.50 75.56 74.57 74.04 73.88 73.63 73.27 73.41 73.13 71.55 70.70 70.24
59.51 65.62 65.06 65.26 66.52 67.56 67.62 68.36 69.90 70.25 70.53 72.29 73.03 72.90 73.79 73.85 74.38 73.67 73.15 73.95 73.79 73.65 72.95 72.25 72.60 70.97 71.16 71.47 71.10 70.09 70.07 68.68
63.71 66.44 65.52 65.99 66.83 67.75 67.29 68.15 69.49 70.09 71.91 72.15 72.67 71.18 70.91 71.35 72.32 68.88 73.26 73.26 71.69 69.57 67.89 68.40 68.26 68.42 69.83 68.88 70.16 69.52 67.93 68.03
MSLP
999.22 999.50 999.93 998.90 998.10 997.89 997.04 996.41 996.42 996.32 996.87 997.57 997.88 998.32 998.87 999.12 999.51 1000.02 1000.55 1000.91 1001.73 1002.09 1003.50 1004.89 1006.02 1006.84 1007.89 1008.83 1009.93 1010.72 1011.49 1012.39
997.71 998.75 998.90 998.78 998.07 997.96 997.71 997.15 996.33 995.75 996.07 995.92 997.25 997.72 998.40 998.64 999.17 999.89 1000.65 1001.37 1001.89 1002.37 1002.87 1004.28 1005.49 1006.46 1007.54 1008.39 1009.19 1009.96 1010.46 1011.41
997.41 997.69 997.98 998.56 998.36 998.10 997.09 996.95 996.32 995.77 994.90 994.74 996.48 997.06 997.80 998.16 998.78 999.68 1000.44 1001.07 1001.77 1002.39 1003.18 1004.07 1005.17 1005.96 1006.90 1008.04 1008.81 1009.55 1010.16 1010.44
996.89 997.10 998.11 997.79 997.53 997.83 997.19 997.07 996.31 995.39 994.98 995.52 995.89 996.51 997.35 997.66 998.57 999.61 1000.66 1001.45 1002.17 1002.95 1003.65 1004.40 1005.13 1005.79 1006.75 1007.64 1008.42 1009.08 1009.98 1010.21
996.80 996.34 996.91 996.89 996.93 996.74 996.87 996.64 996.10 995.64 995.06 994.88 995.60 996.28 996.93 997.26 998.39 999.91 1001.00 1001.75 1002.32 1003.14 1004.29 1005.28 1005.84 1006.40 1006.94 1007.76 1008.08 1008.20 1009.31 1010.02
996.13 995.81 995.52 996.47 996.97 996.85 996.53 995.91 995.41 994.96 994.47 994.89 995.82 996.12 996.62 997.07 998.32 999.99 1001.17 1001.86 1002.13 1003.01 1004.24 1005.59 1006.26 1007.03 1007.57 1007.98 1008.14 1007.78 1008.62 1009.23
996.57 995.99 995.24 995.29 995.57 996.34 996.25 995.92 995.28 994.48 994.17 994.42 994.85 995.77 996.50 997.00 998.25 999.81 1000.82 1001.41 1002.08 1003.02 1004.67 1005.88 1006.60 1007.33 1007.77 1007.92 1008.57 1008.67 1009.14 1009.68
996.46 996.30 995.53 994.76 994.52 994.57 995.07 995.29 995.17 994.59 993.72 993.58 994.50 995.14 995.98 997.04 997.92 999.37 1000.32 1001.01 1001.94 1003.04 1004.53 1005.49 1006.42 1007.16 1007.78 1008.10 1008.77 1009.41 1010.04 1010.41
996.21 996.03 995.47 994.33 994.15 994.20 994.28 994.25 994.85 994.32 994.02 993.95 994.22 994.61 995.41 996.52 997.65 998.87 999.93 1000.65 1001.53 1002.51 1003.76 1004.76 1005.86 1006.71 1007.50 1008.17 1008.89 1009.57 1010.08 1010.45
996.12 995.87 994.32 994.02 994.28 994.26 994.22 994.19 994.36 994.37 994.16 994.06 994.59 994.83 995.03 995.51 996.22 997.57 999.19 1000.18 1001.14 1001.79 1002.99 1004.21 1005.24 1006.26 1007.22 1008.16 1008.96 1009.50 1009.91 1010.08
995.61 995.20 994.58 994.07 993.75 993.20 993.13 993.77 993.94 993.93 994.03 993.97 994.51 994.71 994.75 994.96 995.28 995.97 997.47 999.23 1000.53 1001.37 1002.54 1003.88 1004.82 1006.21 1007.17 1007.86 1008.71 1009.23 1009.57 1010.14
995.43 994.63 993.46 993.43 992.89 992.92 992.77 992.42 993.19 993.39 993.49 993.89 994.45 994.27 994.27 994.66 994.99 995.16 995.99 998.11 999.87 1001.09 1002.51 1004.05 1005.01 1005.98 1006.93 1007.63 1008.49 1009.18 1009.86 1010.45
994.90 994.12 993.67 993.31 992.61 992.37 992.68 993.00 992.96 992.95 992.97 993.54 993.98 994.28 994.60 995.03 995.22 995.23 995.03 997.14 999.21 1000.69 1002.52 1003.99 1005.15 1005.78 1006.63 1007.57 1008.40 1009.10 1009.86 1010.55
994.78 994.10 993.58 993.34 993.30 993.03 993.46 993.73 994.15 993.70 993.43 993.62 994.18 994.82 995.74 996.14 995.84 994.79 995.20 997.09 999.46 1001.30 1002.98 1004.06 1004.96 1005.84 1006.46 1007.45 1008.54 1009.53 1010.01 1010.32
994.24 993.89 994.65 994.30 994.39 994.71 994.84 995.24 995.33 995.30 994.98 995.35 995.51 995.86 996.71 996.60 996.74 996.45 996.99 998.76 1000.39 1002.29 1003.55 1004.74 1005.19 1005.85 1006.74 1007.82 1009.04 1009.86 1010.32 1010.56
994.39 994.67 994.84 995.22 995.23 995.45 995.66 995.74 996.03 996.23 996.21 996.28 996.29 996.99 997.53 997.57 997.86 998.87 999.88 1000.88 1001.82 1003.16 1004.44 1005.66 1006.13 1006.64 1007.38 1008.58 1009.13 1009.48 1010.31 1010.19
994.38 995.15 996.08 995.57 995.82 996.05 996.36 996.61 996.64 996.80 996.83 997.02 997.52 998.26 998.79 999.36 1000.02 1000.74 1001.64 1002.36 1003.13 1004.43 1005.94 1006.88 1007.21 1007.60 1008.39 1008.99 1009.75 1010.48 1011.35 1010.60
994.35 995.32 995.31 996.04 996.60 996.79 997.05 997.35 997.54 997.73 997.99 998.43 998.98 999.65 1000.19 1000.94 1001.91 1002.61 1003.31 1004.12 1005.20 1006.29 1007.09 1007.56 1007.96 1008.56 1008.82 1008.92 1009.45 1010.18 1010.72 1010.72
995.78 995.59 996.20 996.67 997.07 997.48 997.71 998.02 998.47 998.81 999.24 999.70 1000.35 1000.97 1001.75 1002.54 1003.47 1004.32 1005.01 1005.82 1006.56 1007.27 1008.02 1008.35 1008.63 1009.92 1009.81 1009.78 1009.08 1010.21 1010.59 1010.75
Wind_Speed
27 22 20 20 17 18 18 15 9 5 10 8 9 11 11 11 13 9 7 4 6 14 17 16 16 17 18 17 18 17 16 13
21 25 25 24 18 13 9 14 14 12 7 5 17 14 14 14 13 10 9 5 8 7 13 15 15 16 16 17 16 15 15 14
20 18 20 13 18 14 16 15 13 10 10 17 17 16 16 14 13 12 8 8 6 8 8 11 14 14 16 14 14 13 13 13
21 21 22 25 22 22 14 15 13 13 3 7 15 17 16 15 13 12 7 7 7 6 6 7 10 12 13 14 14 13 12 12
22 19 22 25 24 16 22 20 17 14 12 10 10 12 16 15 16 13 9 9 8 9 8 8 9 8 9 9 12 14 14 10
19 21 15 18 22 21 20 16 16 18 16 11 9 12 14 14 16 15 11 11 11 11 11 10 10 10 9 11 10 9 14 11
24 25 23 26 23 25 27 23 23 19 15 15 12 15 13 14 17 16 14 14 12 12 11 11 10 10 9 10 7 4 3 1
23 24 26 25 20 25 25 22 22 21 21 16 14 10 16 14 19 18 17 15 15 14 14 13 13 11 10 8 9 7 6 4
22 22 25 24 24 19 17 18 17 19 18 9 8 10 14 17 17 19 18 17 18 17 16 14 13 11 11 9 7 7 7 6
20 22 27 12 21 24 22 20 19 20 16 14 11 14 11 15 22 22 20 19 18 17 17 16 15 13 11 11 9 9 9 8
17 19 19 22 25 24 21 24 19 20 19 10 11 14 17 14 12 21 25 21 18 17 17 15 15 14 13 12 11 10 9 8
13 22 25 19 22 17 15 22 22 25 17 18 15 11 11 11 15 21 25 22 19 18 18 15 15 15 13 12 11 9 9 8
16 14 16 22 13 18 23 12 15 22 22 14 16 8 8 14 17 19 20 24 21 19 17 15 15 15 13 12 11 10 9 8
17 18 20 3 5 11 7 8 9 10 7 2 6 6 3 6 12 8 18 23 19 17 16 16 15 14 13 11 11 10 10 8
15 16 10 4 3 7 6 2 3 4 5 2 6 5 2 3 2 5 17 15 16 14 15 13 12 12 13 12 11 9 7 5
11 6 7 6 4 2 1 2 1 3 2 3 5 6 5 7 9 11 11 12 13 12 13 11 10 11 12 11 10 9 6 5
12 13 7 10 9 7 6 5 4 5 5 7 10 9 10 10 11 11 11 7 12 12 11 11 11 9 10 8 5 3 1 2
9 11 12 11 8 9 10 10 10 12 12 13 14 14 16 15 12 12 12 11 11 12 12 11 10 10 10 10 8 5 5 7
10 12 14 12 11 12 13 16 16 15 16 17 18 17 17 15 13 13 11 11 10 9 8 7 9 4 3 4 7 2 2 6
Wind_Direction
217 223 231 258 241 269 290 289 269 215 174 140 162 171 170 186 155 186 165 155 202 199 184 189 195 195 192 196 192 201 197 202
219 213 221 240 271 220 236 271 273 216 196 254 168 177 180 190 168 146 147 164 176 212 186 182 199 189 194 197 195 200 203 195
216 205 224 209 247 255 280 221 249 236 235 164 173 175 186 184 184 157 158 158 185 181 202 177 190 200 189 193 199 199 202 201
246 192 221 242 217 233 242 246 277 289 32 104 165 173 194 187 165 141 147 141 153 167 173 187 191 194 193 187 202 191 197 203
233 222 210 230 240 249 227 245 235 248 250 163 146 181 196 190 157 142 155 154 155 147 156 173 180 189 171 188 202 191 179 176
244 230 215 209 238 245 258 255 249 237 247 136 165 208 205 193 157 158 178 164 167 152 144 152 156 156 176 179 197 202 171 193
242 257 251 220 205 220 237 242 249 248 212 250 181 183 200 206 168 169 184 181 159 147 138 152 147 153 169 163 168 158 127 142
240 246 254 255 241 226 220 230 249 263 256 207 212 228 179 212 178 183 188 186 167 152 158 162 157 160 157 153 145 150 152 203
244 242 247 237 242 229 251 213 235 242 250 264 261 198 184 191 203 196 197 188 174 167 170 165 163 164 160 148 149 143 159 170
240 239 243 239 240 239 241 242 220 242 253 223 240 254 223 218 198 194 199 196 181 172 170 162 161 160 147 152 155 161 172 165
239 238 254 233 245 241 215 234 232 232 235 231 227 242 244 251 243 201 194 199 192 180 163 165 153 149 155 153 158 167 147 137
228 241 235 236 248 239 259 223 224 230 226 222 225 238 262 252 245 228 192 190 188 184 146 164 157 158 155 152 155 153 146 150
235 235 234 257 256 250 209 239 241 232 226 203 237 271 322 316 320 293 192 180 178 160 153 164 168 154 161 153 162 157 149 143
229 231 236 221 196 247 62 63 10 347 12 2 324 325 9 291 284 270 186 162 173 144 162 157 172 156 153 158 131 141 152 154
226 226 96 90 17 62 31 65 26 336 344 343 246 113 189 150 248 78 115 123 129 155 156 167 157 158 148 125 142 153 150 153
210 118 96 69 97 57 308 289 339 253 192 200 134 127 157 146 130 121 122 141 151 127 144 152 139 135 125 144 150 156 178 154
118 110 133 80 57 61 77 105 106 97 104 100 112 121 115 109 116 134 137 113 120 130 140 144 126 106 120 123 116 96 260 182
101 113 82 98 90 83 95 97 97 102 104 103 107 112 115 114 96 96 101 112 132 142 142 136 132 117 126 135 138 144 218 270
110 92 105 108 110 110 107 108 104 102 106 110 110 107 105 95 90 96 97 96 88 83 86 92 115 137 84 102 112 161 302 302